Regional Weather Roundup
Issued by NWS State College, PA

Home | Current Version | Previous Version | Graphics & Text | Print | Product List | Glossary On
Versions: 1 2 3 4 5 6 7 8 9 10 11 12 13 14 15 16 17 18 19 20 21 22 23 24 25 26 27 28 29 30 31 32 33 34 35 36 37 38 39 40 41 42 43 44 45 46 47 48 49 50
000
ASUS41 KCTP 271810
RWRCTP

REGIONAL WEATHER ROUNDUP
NATIONAL WEATHER SERVICE STATE COLLEGE PA
100 PM EST SAT DEC 27 2014

Note: "fair" indicates few or no clouds below 12,000 feet with no
significant weather and/or obstructions to visibility.

* = STATION THAT DOES NOT REPORT PRECIPITATION /E.G. RAIN...SNOW...ETC/
    THUNDER OR FOG.

PAZ002>004-007>009-013>016-020>023-029>032-271900-
WESTERN PENNSYLVANIA

CITY           SKY/WX    TMP DP  RH WIND       PRES   REMARKS
ERIE           MOSUNNY   53  38  56 S14       30.05F
MEADVILLE      SUNNY     50  35  56 S8        30.07F
FRANKLIN*      PTSUNNY   48  34  57 S10       30.11F
NEW CASTLE       N/A     55  36  49 VRB6      30.12F
BEAVER COUNTY  NOT AVBL
BUTLER*        SUNNY     52  34  50 S8        30.16S
PITTSBURGH INT PTSUNNY   55  34  45 S13       30.13F
PITTSBURGH     SUNNY     53  29  39 S12       30.14F
INDIANA*       PTSUNNY   52  34  50 SW5       30.18F
LATROBE        PTSUNNY   54  32  43 SW14      30.18F
WASHINGTON CO* NOT AVBL
$$

PAZ004>006-010>012-017>019-024>028-033>037-041-042-045-046-049>053-271900-
CENTRAL PENNSYLVANIA

CITY           SKY/WX    TMP DP  RH WIND       PRES   REMARKS
BRADFORD       CLOUDY    44  34  67 SW9       30.11F
DUBOIS         CLOUDY    47  34  60 SW7       30.12F
CLEARFIELD     CLOUDY    49  32  52 SW8       30.15F
JOHNSTOWN      SUNNY     51  32  48 SW9       30.14F
ALTOONA        SUNNY     52  33  48 S8        30.15F
STATE COLLEGE  MOSUNNY   52  34  50 SW8       30.16F
WILLIAMSPORT   SUNNY     46  33  60 SE3       30.18F
SELINSGROVE    SUNNY     50  34  54 S3        30.19F
FT INDIANTOWN  SUNNY     52  36  53 VRB2      30.20F
CAPITAL CITY   SUNNY     54  33  45 E3        30.20F
HARRISBURG     MOSUNNY   51  34  52 CALM      30.19F
YORK           SUNNY     57  30  35 CALM      30.20F
$$

PAZ038>040-043-044-047-048-054-055-060>062-067>071-271900-
EASTERN PENNSYLVANIA

CITY           SKY/WX    TMP DP  RH WIND       PRES   REMARKS
SCRANTON       SUNNY     50  31  48 W8        30.17F
MOUNT POCONO   MOSUNNY   47  32  56 VRB7      30.16F
ALLENTOWN      SUNNY     54  33  45 S7        30.19F
QUAKERTOWN*    CLEAR     54  32  43 NW6       30.21F
READING        SUNNY     54  31  41 CALM      30.20F
LANCASTER      SUNNY     52  31  44 S3        30.20F
COATESVILLE    CLEAR     55  32  41 NW8       30.22F
POTTSTOWN      SUNNY     55  30  38 W6        30.22F
BLUE BELL      SUNNY     55  32  41 W5        30.21F
DOYLESTOWN     SUNNY     55  32  41 CALM      30.20F
WILLOW GROVE   NOT AVBL
NORTH PHILA    SUNNY     56  31  38 SW7       30.23F
PHILADELPHIA   MOSUNNY   53  34  48 W5        30.23F
$$


USA.gov is the U.S. government's official web portal to all federal, state and local government web resources and services.